Time,TemperatureF,DewpointF,PressureIn,WindDirection,WindDirectionDegrees,WindSpeedMPH,WindSpeedGustMPH,Humidity,HourlyPrecipIn,Conditions,Clouds,dailyrainin,SoftwareType,DateUTC
2013-09-07 00:08:00,75.6,71.1,30.01,ENE,58,1.0,-999.0,86,-99.99,,,99.99,meteohub,2013-09-07 04:08:00,
2013-09-07 00:09:00,75.7,71.6,30.01,ENE,58,0.0,-999.0,87,-99.99,,,99.99,meteohub,2013-09-07 04:09:00,
2013-09-07 00:11:00,75.7,71.6,30.01,ENE,77,0.0,1.0,87,0.00,,,0.00,meteohub,2013-09-07 04:11:00,
2013-09-07 00:12:00,75.7,71.6,30.01,ENE,77,0.0,1.0,87,0.00,,,0.00,meteohub,2013-09-07 04:12:00,
2013-09-07 00:15:00,75.7,71.2,30.01,ENE,77,0.0,1.0,86,0.00,,,0.00,meteohub,2013-09-07 04:15:00,
2013-09-07 00:20:00,75.6,71.4,30.01,ENE,77,0.0,1.0,87,0.00,,,0.00,meteohub,2013-09-07 04:20:00,
2013-09-07 00:23:00,75.6,71.4,30.01,ENE,77,0.0,1.0,87,0.00,,,0.00,meteohub,2013-09-07 04:23:00,
2013-09-07 00:28:00,75.4,71.6,30.01,ENE,77,0.0,0.0,88,0.00,,,0.00,meteohub,2013-09-07 04:28:00,
2013-09-07 00:33:00,75.0,71.2,30.01,ENE,77,0.0,0.0,88,0.00,,,0.00,meteohub,2013-09-07 04:33:00,
2013-09-07 00:38:00,74.8,71.4,30.01,ENE,77,0.0,0.0,89,0.00,,,0.00,meteohub,2013-09-07 04:38:00,
2013-09-07 00:44:00,74.8,71.1,30.01,ENE,74,0.0,1.0,88,0.00,,,0.00,meteohub,2013-09-07 04:44:00,
2013-09-07 00:49:00,75.2,71.4,30.01,ENE,64,0.0,1.0,88,0.00,,,0.00,meteohub,2013-09-07 04:49:00,
2013-09-07 00:55:00,75.2,71.1,30.01,ENE,68,0.0,2.0,87,0.00,,,0.00,meteohub,2013-09-07 04:55:00,
2013-09-07 01:00:00,75.2,71.4,30.01,ENE,66,1.0,2.0,88,0.00,,,0.00,meteohub,2013-09-07 05:00:00,
2013-09-07 01:06:00,75.0,71.2,30.02,ENE,77,0.0,2.0,88,0.00,,,0.00,meteohub,2013-09-07 05:06:00,
2013-09-07 01:11:00,75.0,71.2,30.02,NE,56,1.0,3.0,88,0.00,,,0.00,meteohub,2013-09-07 05:11:00,
2013-09-07 01:16:00,75.2,71.4,30.02,ENE,75,0.0,3.0,88,0.00,,,0.00,meteohub,2013-09-07 05:16:00,
2013-09-07 01:21:00,75.0,71.2,30.02,NE,34,2.0,3.0,88,0.00,,,0.00,meteohub,2013-09-07 05:21:00,
2013-09-07 01:26:00,74.8,71.1,30.01,East,84,2.0,6.0,88,0.00,,,0.00,meteohub,2013-09-07 05:26:00,
2013-09-07 01:31:00,74.7,71.6,30.02,East,94,0.0,6.0,90,0.00,,,0.00,meteohub,2013-09-07 05:31:00,
2013-09-07 01:36:00,74.5,71.4,30.02,ESE,118,2.0,6.0,90,0.00,,,0.00,meteohub,2013-09-07 05:36:00,
2013-09-07 01:42:00,74.3,71.4,30.01,NE,41,0.0,5.0,91,0.00,,,0.00,meteohub,2013-09-07 05:42:00,
2013-09-07 01:47:00,74.1,71.2,30.01,East,98,0.0,5.0,91,0.00,,,0.00,meteohub,2013-09-07 05:47:00,
2013-09-07 01:52:00,74.1,71.2,30.01,ESE,119,1.0,5.0,91,0.00,,,0.00,meteohub,2013-09-07 05:52:00,
2013-09-07 01:57:00,73.9,71.4,30.01,East,81,1.0,3.0,92,0.00,,,0.00,meteohub,2013-09-07 05:57:00,
2013-09-07 02:02:00,73.9,71.4,30.01,ESE,118,0.0,5.0,92,0.00,,,0.00,meteohub,2013-09-07 06:02:00,
2013-09-07 02:07:00,73.9,71.4,30.01,NE,38,0.0,5.0,92,0.00,,,0.00,meteohub,2013-09-07 06:07:00,
2013-09-07 02:12:00,73.8,71.2,30.01,East,91,0.0,5.0,92,0.00,,,0.00,meteohub,2013-09-07 06:12:00,
2013-09-07 02:17:00,73.8,71.2,30.01,NNW,346,0.0,3.0,92,0.00,,,0.00,meteohub,2013-09-07 06:17:00,
2013-09-07 02:22:00,73.8,71.2,30.01,North,358,0.0,4.0,92,0.00,,,0.00,meteohub,2013-09-07 06:22:00,
2013-09-07 02:27:00,73.6,71.1,30.00,East,79,0.0,4.0,92,0.00,,,0.00,meteohub,2013-09-07 06:27:00,
2013-09-07 02:32:00,73.8,71.2,30.00,NE,34,0.0,2.0,92,0.00,,,0.00,meteohub,2013-09-07 06:32:00,
2013-09-07 02:37:00,73.8,71.2,29.99,East,98,0.0,2.0,92,0.00,,,0.00,meteohub,2013-09-07 06:37:00,
2013-09-07 02:42:00,73.8,70.9,29.99,ESE,121,0.0,1.0,91,0.00,,,0.00,meteohub,2013-09-07 06:42:00,
2013-09-07 02:47:00,73.8,70.9,29.99,NNE,33,0.0,1.0,91,0.00,,,0.00,meteohub,2013-09-07 06:47:00,
2013-09-07 02:53:00,73.8,70.9,29.99,NNE,33,0.0,1.0,91,0.00,,,0.00,meteohub,2013-09-07 06:53:00,
2013-09-07 02:58:00,73.8,70.7,29.99,NNE,33,0.0,1.0,90,0.00,,,0.00,meteohub,2013-09-07 06:58:00,
2013-09-07 03:03:00,73.8,70.9,29.99,NNE,33,0.0,1.0,91,0.00,,,0.00,meteohub,2013-09-07 07:03:00,
2013-09-07 03:08:00,73.8,70.7,29.99,North,4,0.0,1.0,90,0.00,,,0.00,meteohub,2013-09-07 07:08:00,
2013-09-07 03:13:00,73.8,70.7,29.99,North,355,1.0,2.0,90,0.00,,,0.00,meteohub,2013-09-07 07:13:00,
2013-09-07 03:18:00,73.8,70.9,29.99,NNW,336,1.0,2.0,91,0.00,,,0.00,meteohub,2013-09-07 07:18:00,
2013-09-07 03:23:00,73.8,70.9,29.99,NNW,337,0.0,2.0,91,0.00,,,0.00,meteohub,2013-09-07 07:23:00,
2013-09-07 03:28:00,73.6,70.5,29.99,East,84,0.0,2.0,90,0.00,,,0.00,meteohub,2013-09-07 07:28:00,
2013-09-07 03:34:00,73.6,70.2,30.00,NE,51,0.0,1.0,89,0.00,,,0.00,meteohub,2013-09-07 07:34:00,
2013-09-07 03:39:00,73.6,69.8,30.00,ENE,70,1.0,2.0,88,0.00,,,0.00,meteohub,2013-09-07 07:39:00,
2013-09-07 03:44:00,73.6,69.8,30.00,NE,38,0.0,4.0,88,0.00,,,0.00,meteohub,2013-09-07 07:44:00,
2013-09-07 03:49:00,73.6,69.8,29.99,ENE,63,0.0,4.0,88,0.00,,,0.00,meteohub,2013-09-07 07:49:00,
2013-09-07 03:54:00,73.6,69.8,29.99,NE,56,0.0,4.0,88,0.00,,,0.00,meteohub,2013-09-07 07:54:00,
2013-09-07 03:59:00,73.4,69.6,29.99,ENE,75,0.0,4.0,88,0.00,,,0.00,meteohub,2013-09-07 07:59:00,
2013-09-07 04:04:00,73.2,69.4,29.99,ENE,61,0.0,4.0,88,0.00,,,0.00,meteohub,2013-09-07 08:04:00,
2013-09-07 04:09:00,73.2,69.4,29.99,NE,41,0.0,4.0,88,0.00,,,0.00,meteohub,2013-09-07 08:09:00,
2013-09-07 04:14:00,73.0,69.3,29.99,ENE,65,0.0,3.0,88,0.00,,,0.00,meteohub,2013-09-07 08:14:00,
2013-09-07 04:20:00,73.0,69.3,29.99,East,86,0.0,2.0,88,0.00,,,0.00,meteohub,2013-09-07 08:20:00,
2013-09-07 04:25:00,73.0,69.3,29.98,East,87,0.0,2.0,88,0.00,,,0.00,meteohub,2013-09-07 08:25:00,
2013-09-07 04:30:00,72.9,69.4,29.99,East,91,0.0,2.0,89,0.00,,,0.00,meteohub,2013-09-07 08:30:00,
2013-09-07 04:35:00,72.7,69.6,29.99,East,91,0.0,1.0,90,0.00,,,0.00,meteohub,2013-09-07 08:35:00,
2013-09-07 04:40:00,72.5,69.4,29.98,East,91,0.0,1.0,90,0.00,,,0.00,meteohub,2013-09-07 08:40:00,
2013-09-07 04:45:00,72.3,69.3,29.98,East,91,0.0,0.0,90,0.00,,,0.00,meteohub,2013-09-07 08:45:00,
2013-09-07 04:50:00,72.1,69.4,29.98,East,91,0.0,0.0,91,0.00,,,0.00,meteohub,2013-09-07 08:50:00,
2013-09-07 04:55:00,72.0,69.3,29.98,East,91,0.0,0.0,91,0.00,,,0.00,meteohub,2013-09-07 08:55:00,
2013-09-07 05:00:00,72.0,69.3,29.98,East,81,0.0,0.0,91,0.00,,,0.00,meteohub,2013-09-07 09:00:00,
2013-09-07 05:05:00,71.8,69.3,29.98,East,81,0.0,1.0,92,0.00,,,0.00,meteohub,2013-09-07 09:05:00,
2013-09-07 05:11:00,71.6,69.1,29.98,East,81,0.0,1.0,92,0.00,,,0.00,meteohub,2013-09-07 09:11:00,
2013-09-07 05:16:00,71.4,68.9,29.98,East,81,0.0,1.0,92,0.00,,,0.00,meteohub,2013-09-07 09:16:00,
2013-09-07 05:21:00,71.4,69.3,29.98,East,81,0.0,0.0,93,0.00,,,0.00,meteohub,2013-09-07 09:21:00,
2013-09-07 05:26:00,71.4,69.3,29.97,East,81,0.0,0.0,93,0.00,,,0.00,meteohub,2013-09-07 09:26:00,
2013-09-07 05:31:00,71.4,69.3,29.97,East,81,0.0,0.0,93,0.00,,,0.00,meteohub,2013-09-07 09:31:00,
2013-09-07 05:36:00,71.2,69.1,29.97,East,81,0.0,0.0,93,0.00,,,0.00,meteohub,2013-09-07 09:36:00,
2013-09-07 05:41:00,71.2,69.4,29.98,East,81,0.0,0.0,94,0.00,,,0.00,meteohub,2013-09-07 09:41:00,
2013-09-07 05:46:00,71.2,69.4,29.98,NE,34,0.0,0.0,94,0.00,,,0.00,meteohub,2013-09-07 09:46:00,
2013-09-07 05:51:00,71.6,69.8,29.98,NNE,30,1.0,1.0,94,0.00,,,0.00,meteohub,2013-09-07 09:51:00,
2013-09-07 05:56:00,72.0,69.8,29.98,NNE,30,0.0,1.0,93,0.00,,,0.00,meteohub,2013-09-07 09:56:00,
2013-09-07 06:02:00,72.3,70.2,29.98,North,6,1.0,3.0,93,0.00,,,0.00,meteohub,2013-09-07 10:02:00,
2013-09-07 06:07:00,72.3,69.8,29.98,ENE,74,3.0,3.0,92,0.00,,,0.00,meteohub,2013-09-07 10:07:00,
2013-09-07 06:12:00,72.5,69.8,29.98,East,79,0.0,3.0,91,0.00,,,0.00,meteohub,2013-09-07 10:12:00,
2013-09-07 06:17:00,72.7,70.0,29.99,NE,38,0.0,3.0,91,0.00,,,0.00,meteohub,2013-09-07 10:17:00,
2013-09-07 06:22:00,72.7,69.6,29.99,North,11,1.0,3.0,90,0.00,,,0.00,meteohub,2013-09-07 10:22:00,
2013-09-07 06:27:00,72.5,69.4,29.99,North,1,1.0,5.0,90,0.00,,,0.00,meteohub,2013-09-07 10:27:00,
2013-09-07 06:32:00,72.3,69.3,29.99,East,90,1.0,5.0,90,0.00,,,0.00,meteohub,2013-09-07 10:32:00,
2013-09-07 06:37:00,72.3,69.3,29.99,ESE,105,3.0,5.0,90,0.00,,,0.00,meteohub,2013-09-07 10:37:00,
2013-09-07 06:42:00,72.3,69.3,29.99,East,97,2.0,4.0,90,0.00,,,0.00,meteohub,2013-09-07 10:42:00,
2013-09-07 06:47:00,72.3,69.3,29.99,ENE,78,2.0,4.0,90,0.00,,,0.00,meteohub,2013-09-07 10:47:00,
2013-09-07 06:52:00,72.3,69.3,29.99,NE,37,0.0,4.0,90,0.00,,,0.00,meteohub,2013-09-07 10:52:00,
2013-09-07 06:57:00,72.1,69.1,29.99,ENE,73,1.0,6.0,90,0.00,,,0.00,meteohub,2013-09-07 10:57:00,
2013-09-07 07:02:00,72.3,69.3,29.99,NNE,24,0.0,6.0,90,0.00,,,0.00,meteohub,2013-09-07 11:02:00,
2013-09-07 07:07:00,72.3,69.6,29.99,NE,36,2.0,6.0,91,0.00,,,0.00,meteohub,2013-09-07 11:07:00,
2013-09-07 07:12:00,72.1,69.4,30.00,NE,49,0.0,6.0,91,0.00,,,0.00,meteohub,2013-09-07 11:12:00,
2013-09-07 07:17:00,72.1,69.4,30.00,ENE,72,0.0,5.0,91,0.00,,,0.00,meteohub,2013-09-07 11:17:00,
2013-09-07 07:22:00,72.1,69.4,29.99,North,8,0.0,5.0,91,0.00,,,0.00,meteohub,2013-09-07 11:22:00,
2013-09-07 07:27:00,72.1,69.1,30.00,ENE,75,1.0,2.0,90,0.00,,,0.00,meteohub,2013-09-07 11:27:00,
2013-09-07 07:32:00,72.3,69.3,30.00,NE,39,2.0,2.0,90,0.00,,,0.00,meteohub,2013-09-07 11:32:00,
2013-09-07 07:37:00,72.5,69.1,30.00,East,80,0.0,3.0,89,0.00,,,0.00,meteohub,2013-09-07 11:37:00,
2013-09-07 07:42:00,73.0,69.6,30.00,NE,48,0.0,3.0,89,0.00,,,0.00,meteohub,2013-09-07 11:42:00,
2013-09-07 07:47:00,73.8,69.6,30.00,NE,49,2.0,3.0,87,0.00,,,0.00,meteohub,2013-09-07 11:47:00,
2013-09-07 07:52:00,73.9,69.8,30.00,NE,51,2.0,3.0,87,0.00,,,0.00,meteohub,2013-09-07 11:52:00,
2013-09-07 07:57:00,73.9,69.8,30.00,ENE,63,0.0,3.0,87,0.00,,,0.00,meteohub,2013-09-07 11:57:00,
2013-09-07 08:02:00,73.9,69.8,30.00,East,94,0.0,5.0,87,0.00,,,0.00,meteohub,2013-09-07 12:02:00,
2013-09-07 08:07:00,74.5,70.3,30.00,NNE,32,1.0,5.0,87,0.00,,,0.00,meteohub,2013-09-07 12:07:00,
2013-09-07 08:12:00,75.0,70.5,30.00,ENE,77,1.0,4.0,86,0.00,,,0.00,meteohub,2013-09-07 12:12:00,
2013-09-07 08:17:00,75.6,70.7,30.00,NE,56,1.0,4.0,85,0.00,,,0.00,meteohub,2013-09-07 12:17:00,
2013-09-07 08:22:00,75.9,70.7,30.00,East,88,2.0,5.0,84,0.00,,,0.00,meteohub,2013-09-07 12:22:00,
2013-09-07 08:27:00,76.3,71.1,30.00,East,96,2.0,5.0,84,0.00,,,0.00,meteohub,2013-09-07 12:27:00,
2013-09-07 08:32:00,76.8,71.6,30.00,ENE,76,1.0,5.0,84,0.00,,,0.00,meteohub,2013-09-07 12:32:00,
2013-09-07 08:37:00,77.5,71.6,30.00,ENE,63,2.0,5.0,82,0.00,,,0.00,meteohub,2013-09-07 12:37:00,
2013-09-07 08:42:00,78.1,72.1,30.00,East,97,0.0,5.0,82,0.00,,,0.00,meteohub,2013-09-07 12:42:00,
2013-09-07 08:47:00,78.3,72.0,30.00,NE,54,3.0,6.0,81,0.00,,,0.00,meteohub,2013-09-07 12:47:00,
2013-09-07 08:52:00,78.3,72.0,30.00,ENE,63,2.0,8.0,81,0.00,,,0.00,meteohub,2013-09-07 12:52:00,
2013-09-07 08:57:00,78.6,72.7,30.00,ENE,78,3.0,8.0,82,0.00,,,0.00,meteohub,2013-09-07 12:57:00,
2013-09-07 09:02:00,79.0,72.3,30.00,East,97,5.0,8.0,80,0.00,,,0.00,meteohub,2013-09-07 13:02:00,
2013-09-07 09:07:00,79.0,72.7,30.00,East,83,5.0,5.0,81,0.00,,,0.00,meteohub,2013-09-07 13:07:00,
2013-09-07 09:12:00,79.0,72.7,30.00,East,88,3.0,7.0,81,0.00,,,0.00,meteohub,2013-09-07 13:12:00,
2013-09-07 09:17:00,79.3,73.0,30.00,NE,49,1.0,7.0,81,0.00,,,0.00,meteohub,2013-09-07 13:17:00,
2013-09-07 09:22:00,79.7,73.0,30.00,East,90,2.0,7.0,80,0.00,,,0.00,meteohub,2013-09-07 13:22:00,
2013-09-07 09:27:00,80.1,73.4,30.01,NE,34,0.0,6.0,80,0.00,,,0.00,meteohub,2013-09-07 13:27:00,
2013-09-07 09:32:00,80.4,73.8,30.01,ENE,58,5.0,6.0,80,0.00,,,0.00,meteohub,2013-09-07 13:32:00,
2013-09-07 09:37:00,80.2,73.6,30.01,NE,34,1.0,7.0,80,0.00,,,0.00,meteohub,2013-09-07 13:37:00,
2013-09-07 09:42:00,80.2,73.0,30.01,ENE,57,3.0,7.0,79,0.00,,,0.00,meteohub,2013-09-07 13:42:00,
2013-09-07 09:47:00,80.4,73.2,30.01,East,98,4.0,8.0,79,0.00,,,0.00,meteohub,2013-09-07 13:47:00,
2013-09-07 09:52:00,80.8,73.6,30.01,ESE,109,5.0,8.0,79,0.00,,,0.00,meteohub,2013-09-07 13:52:00,
2013-09-07 09:57:00,80.8,73.2,30.01,NE,49,5.0,8.0,78,0.00,,,0.00,meteohub,2013-09-07 13:57:00,
2013-09-07 10:02:00,81.0,73.0,30.01,SE,124,2.0,7.0,77,0.00,,,0.00,meteohub,2013-09-07 14:02:00,
2013-09-07 10:07:00,81.3,73.0,30.02,East,94,1.0,7.0,76,0.00,,,0.00,meteohub,2013-09-07 14:07:00,
2013-09-07 10:12:00,81.5,73.6,30.02,ENE,70,5.0,8.0,77,0.00,,,0.00,meteohub,2013-09-07 14:12:00,
2013-09-07 10:17:00,82.0,73.8,30.02,ESE,104,3.0,9.0,76,0.00,,,0.00,meteohub,2013-09-07 14:17:00,
2013-09-07 10:22:00,81.9,73.6,30.02,East,96,4.0,9.0,76,0.00,,,0.00,meteohub,2013-09-07 14:22:00,
2013-09-07 10:27:00,81.7,73.4,30.02,East,90,2.0,8.0,76,0.00,,,0.00,meteohub,2013-09-07 14:27:00,
2013-09-07 10:32:00,82.4,73.8,30.03,SSE,161,2.0,8.0,75,0.00,,,0.00,meteohub,2013-09-07 14:32:00,
2013-09-07 10:37:00,82.4,73.2,30.03,East,89,5.0,8.0,74,0.00,,,0.00,meteohub,2013-09-07 14:37:00,
2013-09-07 10:42:00,82.4,73.8,30.03,NW,321,4.0,7.0,75,0.00,,,0.00,meteohub,2013-09-07 14:42:00,
2013-09-07 10:47:00,82.6,73.8,30.03,ENE,78,4.0,7.0,75,0.00,,,0.00,meteohub,2013-09-07 14:47:00,
2013-09-07 10:52:00,82.8,73.6,30.03,East,95,3.0,7.0,74,0.00,,,0.00,meteohub,2013-09-07 14:52:00,
2013-09-07 10:57:00,82.9,74.1,30.03,NE,53,1.0,8.0,75,0.00,,,0.00,meteohub,2013-09-07 14:57:00,
2013-09-07 11:02:00,83.1,73.6,30.03,East,89,4.0,8.0,73,0.00,,,0.00,meteohub,2013-09-07 15:02:00,
2013-09-07 11:07:00,83.3,73.8,30.03,ENE,73,1.0,7.0,73,0.00,,,0.00,meteohub,2013-09-07 15:07:00,
2013-09-07 11:12:00,83.8,73.8,30.03,ESE,103,1.0,7.0,72,0.00,,,0.00,meteohub,2013-09-07 15:12:00,
2013-09-07 11:17:00,83.8,74.3,30.03,West,271,0.0,8.0,73,0.00,,,0.00,meteohub,2013-09-07 15:17:00,
2013-09-07 11:22:00,84.4,73.0,30.03,SE,137,3.0,8.0,69,0.00,,,0.00,meteohub,2013-09-07 15:22:00,
2013-09-07 11:27:00,84.2,73.8,30.03,East,87,4.0,8.0,71,0.00,,,0.00,meteohub,2013-09-07 15:27:00,
2013-09-07 11:32:00,84.0,73.6,30.03,ENE,65,5.0,10.0,71,0.00,,,0.00,meteohub,2013-09-07 15:32:00,
2013-09-07 11:37:00,83.8,73.4,30.03,NE,53,3.0,10.0,71,0.00,,,0.00,meteohub,2013-09-07 15:37:00,
2013-09-07 11:42:00,83.8,73.4,30.03,East,94,2.0,10.0,71,0.00,,,0.00,meteohub,2013-09-07 15:42:00,
2013-09-07 11:47:00,84.0,72.3,30.03,East,99,2.0,8.0,68,0.00,,,0.00,meteohub,2013-09-07 15:47:00,
2013-09-07 11:52:00,84.6,72.0,30.03,ESE,121,0.0,6.0,66,0.00,,,0.00,meteohub,2013-09-07 15:52:00,
2013-09-07 11:57:00,84.9,72.3,30.03,SSE,150,3.0,5.0,66,0.00,,,0.00,meteohub,2013-09-07 15:57:00,
2013-09-07 12:02:00,85.1,72.5,30.03,ENE,78,6.0,6.0,66,0.00,,,0.00,meteohub,2013-09-07 16:02:00,
2013-09-07 12:07:00,84.9,72.7,30.03,ESE,113,2.0,8.0,67,0.00,,,0.00,meteohub,2013-09-07 16:07:00,
2013-09-07 12:12:00,85.3,73.0,30.03,East,101,1.0,8.0,67,0.00,,,0.00,meteohub,2013-09-07 16:12:00,
2013-09-07 12:17:00,85.5,72.3,30.03,East,101,6.0,8.0,65,0.00,,,0.00,meteohub,2013-09-07 16:17:00,
2013-09-07 12:22:00,85.1,72.0,30.02,East,91,2.0,8.0,65,0.00,,,0.00,meteohub,2013-09-07 16:22:00,
2013-09-07 12:27:00,84.7,72.5,30.02,East,101,6.0,9.0,67,0.00,,,0.00,meteohub,2013-09-07 16:27:00,
2013-09-07 12:32:00,84.7,73.0,30.02,East,94,5.0,9.0,68,0.00,,,0.00,meteohub,2013-09-07 16:32:00,
2013-09-07 12:37:00,85.5,74.1,30.02,NE,52,2.0,9.0,69,0.00,,,0.00,meteohub,2013-09-07 16:37:00,
2013-09-07 12:42:00,85.5,73.2,30.02,SSE,150,1.0,7.0,67,0.00,,,0.00,meteohub,2013-09-07 16:42:00,
2013-09-07 12:47:00,85.6,72.5,30.02,NNE,25,3.0,6.0,65,0.00,,,0.00,meteohub,2013-09-07 16:47:00,
2013-09-07 12:52:00,85.6,71.6,30.02,East,79,6.0,9.0,63,0.00,,,0.00,meteohub,2013-09-07 16:52:00,
2013-09-07 12:57:00,86.0,72.9,30.02,East,93,3.0,9.0,65,0.00,,,0.00,meteohub,2013-09-07 16:57:00,
2013-09-07 13:02:00,86.4,72.7,30.02,SE,141,3.0,9.0,64,0.00,,,0.00,meteohub,2013-09-07 17:02:00,
2013-09-07 13:07:00,86.4,72.3,30.02,East,96,2.0,6.0,63,0.00,,,0.00,meteohub,2013-09-07 17:07:00,
2013-09-07 13:12:00,86.5,71.4,30.02,East,95,1.0,7.0,61,0.00,,,0.00,meteohub,2013-09-07 17:12:00,
2013-09-07 13:17:00,86.5,71.1,30.02,ESE,113,5.0,7.0,60,0.00,,,0.00,meteohub,2013-09-07 17:17:00,
2013-09-07 13:22:00,86.5,71.4,30.02,ENE,64,4.0,5.0,61,0.00,,,0.00,meteohub,2013-09-07 17:22:00,
2013-09-07 13:27:00,86.7,72.7,30.02,ENE,57,4.0,5.0,63,0.00,,,0.00,meteohub,2013-09-07 17:27:00,
2013-09-07 13:32:00,87.1,71.1,30.02,NE,51,3.0,5.0,59,0.00,,,0.00,meteohub,2013-09-07 17:32:00,
2013-09-07 13:37:00,87.3,70.2,30.01,NW,312,1.0,6.0,57,0.00,,,0.00,meteohub,2013-09-07 17:37:00,
2013-09-07 13:42:00,87.6,70.0,30.01,SSW,197,0.0,6.0,56,0.00,,,0.00,meteohub,2013-09-07 17:42:00,
2013-09-07 13:47:00,87.8,70.2,30.01,ESE,108,3.0,6.0,56,0.00,,,0.00,meteohub,2013-09-07 17:47:00,
2013-09-07 13:52:00,87.4,70.3,30.01,NE,38,2.0,11.0,57,0.00,,,0.00,meteohub,2013-09-07 17:52:00,
2013-09-07 13:57:00,87.3,69.6,30.01,ENE,75,2.0,11.0,56,0.00,,,0.00,meteohub,2013-09-07 17:57:00,
2013-09-07 14:02:00,87.3,69.6,30.01,ENE,63,1.0,11.0,56,0.00,,,0.00,meteohub,2013-09-07 18:02:00,
2013-09-07 14:07:00,87.3,70.2,30.01,NNE,18,1.0,6.0,57,0.00,,,0.00,meteohub,2013-09-07 18:07:00,
2013-09-07 14:12:00,87.6,70.0,30.01,ESE,120,2.0,6.0,56,0.00,,,0.00,meteohub,2013-09-07 18:12:00,
2013-09-07 14:17:00,87.6,70.0,30.00,East,91,2.0,6.0,56,0.00,,,0.00,meteohub,2013-09-07 18:17:00,
2013-09-07 14:22:00,88.0,69.8,30.00,NNE,25,2.0,6.0,55,0.00,,,0.00,meteohub,2013-09-07 18:22:00,
2013-09-07 14:27:00,88.0,67.6,30.00,ENE,75,3.0,6.0,51,0.00,,,0.00,meteohub,2013-09-07 18:27:00,
2013-09-07 14:32:00,88.0,67.6,29.99,ENE,65,6.0,6.0,51,0.00,,,0.00,meteohub,2013-09-07 18:32:00,
2013-09-07 14:37:00,88.2,67.8,29.99,East,101,1.0,6.0,51,0.00,,,0.00,meteohub,2013-09-07 18:37:00,
2013-09-07 14:42:00,88.2,67.1,29.99,East,94,1.0,6.0,50,0.00,,,0.00,meteohub,2013-09-07 18:42:00,
2013-09-07 14:47:00,88.9,67.8,29.99,ESE,113,0.0,6.0,50,0.00,,,0.00,meteohub,2013-09-07 18:47:00,
2013-09-07 14:52:00,89.4,67.1,29.98,SSW,196,0.0,4.0,48,0.00,,,0.00,meteohub,2013-09-07 18:52:00,
2013-09-07 14:57:00,89.8,67.5,29.98,SE,129,1.0,4.0,48,0.00,,,0.00,meteohub,2013-09-07 18:57:00,
2013-09-07 15:02:00,89.1,65.7,29.98,NE,49,1.0,4.0,46,0.00,,,0.00,meteohub,2013-09-07 19:02:00,
2013-09-07 15:07:00,89.4,67.8,29.97,SSW,203,0.0,6.0,49,0.00,,,0.00,meteohub,2013-09-07 19:07:00,
2013-09-07 15:12:00,90.0,66.4,29.97,SE,137,1.0,6.0,46,0.00,,,0.00,meteohub,2013-09-07 19:12:00,
2013-09-07 15:17:00,90.0,67.6,29.97,South,176,0.0,4.0,48,0.00,,,0.00,meteohub,2013-09-07 19:17:00,
2013-09-07 15:22:00,90.3,68.0,29.96,ESE,102,1.0,3.0,48,0.00,,,0.00,meteohub,2013-09-07 19:22:00,
2013-09-07 15:27:00,90.1,69.6,29.97,ENE,78,4.0,4.0,51,0.00,,,0.00,meteohub,2013-09-07 19:27:00,
2013-09-07 15:33:00,90.3,68.0,29.96,ENE,60,1.0,5.0,48,0.00,,,0.00,meteohub,2013-09-07 19:33:00,
2013-09-07 15:38:00,90.0,68.2,29.96,North,0,1.0,5.0,49,0.00,,,0.00,meteohub,2013-09-07 19:38:00,
2013-09-07 15:43:00,89.8,72.5,29.96,NNE,12,0.0,5.0,57,0.00,,,0.00,meteohub,2013-09-07 19:43:00,
2013-09-07 15:48:00,89.4,72.1,29.96,West,268,5.0,6.0,57,0.00,,,0.00,meteohub,2013-09-07 19:48:00,
2013-09-07 15:53:00,89.2,72.5,29.96,West,274,6.0,9.0,58,0.00,,,0.00,meteohub,2013-09-07 19:53:00,
2013-09-07 15:58:00,88.9,72.1,29.96,NW,316,1.0,9.0,58,0.00,,,0.00,meteohub,2013-09-07 19:58:00,
2013-09-07 16:03:00,89.1,71.8,29.96,WSW,252,5.0,9.0,57,0.00,,,0.00,meteohub,2013-09-07 20:03:00,
2013-09-07 16:08:00,88.7,71.4,29.95,WNW,291,5.0,8.0,57,0.00,,,0.00,meteohub,2013-09-07 20:08:00,
2013-09-07 16:13:00,88.5,71.4,29.95,SW,228,4.0,9.0,57,0.00,,,0.00,meteohub,2013-09-07 20:13:00,
2013-09-07 16:18:00,88.5,71.8,29.95,WNW,295,5.0,9.0,58,0.00,,,0.00,meteohub,2013-09-07 20:18:00,
2013-09-07 16:24:00,88.5,72.3,29.95,WNW,290,4.0,9.0,59,0.00,,,0.00,meteohub,2013-09-07 20:24:00,
2013-09-07 16:29:00,88.5,72.3,29.95,NNE,16,3.0,9.0,59,0.00,,,0.00,meteohub,2013-09-07 20:29:00,
2013-09-07 16:34:00,88.5,72.3,29.94,WSW,244,4.0,10.0,59,0.00,,,0.00,meteohub,2013-09-07 20:34:00,
2013-09-07 16:39:00,88.7,73.6,29.94,West,267,2.0,10.0,61,0.00,,,0.00,meteohub,2013-09-07 20:39:00,
2013-09-07 16:44:00,88.3,72.7,29.94,WSW,251,7.0,10.0,60,0.00,,,0.00,meteohub,2013-09-07 20:44:00,
2013-09-07 16:49:00,88.0,72.9,29.94,NNW,342,2.0,8.0,61,0.00,,,0.00,meteohub,2013-09-07 20:49:00,
2013-09-07 16:54:00,87.8,72.7,29.94,WNW,297,2.0,8.0,61,0.00,,,0.00,meteohub,2013-09-07 20:54:00,
2013-09-07 16:59:00,87.6,72.5,29.94,North,354,4.0,10.0,61,0.00,,,0.00,meteohub,2013-09-07 20:59:00,
2013-09-07 17:04:00,87.4,72.9,29.93,NW,315,3.0,10.0,62,0.00,,,0.00,meteohub,2013-09-07 21:04:00,
2013-09-07 17:09:00,87.6,73.4,29.94,NNW,337,4.0,10.0,63,0.00,,,0.00,meteohub,2013-09-07 21:09:00,
2013-09-07 17:15:00,87.6,73.0,29.94,NW,309,3.0,7.0,62,0.00,,,0.00,meteohub,2013-09-07 21:15:00,
2013-09-07 17:20:00,87.4,72.9,29.94,ESE,108,2.0,7.0,62,0.00,,,0.00,meteohub,2013-09-07 21:20:00,
2013-09-07 17:25:00,87.3,73.6,29.94,WSW,254,2.0,7.0,64,0.00,,,0.00,meteohub,2013-09-07 21:25:00,
2013-09-07 17:30:00,87.4,73.2,29.94,WSW,257,1.0,8.0,63,0.00,,,0.00,meteohub,2013-09-07 21:30:00,
2013-09-07 17:35:00,87.3,73.6,29.94,North,1,2.0,8.0,64,0.00,,,0.00,meteohub,2013-09-07 21:35:00,
2013-09-07 17:40:00,87.1,73.9,29.94,WNW,293,6.0,8.0,65,0.00,,,0.00,meteohub,2013-09-07 21:40:00,
2013-09-07 17:45:00,86.9,73.8,29.94,WNW,293,3.0,8.0,65,0.00,,,0.00,meteohub,2013-09-07 21:45:00,
2013-09-07 17:50:00,87.1,73.9,29.93,NW,314,2.0,8.0,65,0.00,,,0.00,meteohub,2013-09-07 21:50:00,
2013-09-07 17:55:00,87.1,74.3,29.93,WNW,295,4.0,8.0,66,0.00,,,0.00,meteohub,2013-09-07 21:55:00,
2013-09-07 18:00:00,86.7,74.5,29.93,NNW,335,1.0,9.0,67,0.00,,,0.00,meteohub,2013-09-07 22:00:00,
2013-09-07 18:06:00,86.5,74.7,29.93,NW,314,1.0,9.0,68,0.00,,,0.00,meteohub,2013-09-07 22:06:00,
2013-09-07 18:11:00,86.7,74.5,29.93,NW,319,4.0,9.0,67,0.00,,,0.00,meteohub,2013-09-07 22:11:00,
2013-09-07 18:16:00,86.5,73.8,29.93,NNW,347,3.0,9.0,66,0.00,,,0.00,meteohub,2013-09-07 22:16:00,
2013-09-07 18:21:00,86.5,74.3,29.93,NNW,344,1.0,8.0,67,0.00,,,0.00,meteohub,2013-09-07 22:21:00,
2013-09-07 18:26:00,86.4,74.1,29.94,North,352,1.0,8.0,67,0.00,,,0.00,meteohub,2013-09-07 22:26:00,
2013-09-07 18:31:00,86.5,74.3,29.94,NW,310,3.0,7.0,67,0.00,,,0.00,meteohub,2013-09-07 22:31:00,
2013-09-07 18:36:00,86.4,74.1,29.94,West,266,3.0,7.0,67,0.00,,,0.00,meteohub,2013-09-07 22:36:00,
2013-09-07 18:41:00,86.2,74.3,29.94,NW,322,1.0,7.0,68,0.00,,,0.00,meteohub,2013-09-07 22:41:00,
2013-09-07 18:46:00,85.6,73.4,29.94,NE,37,3.0,8.0,67,0.00,,,0.00,meteohub,2013-09-07 22:46:00,
2013-09-07 18:51:00,85.6,73.9,29.94,North,2,4.0,8.0,68,0.00,,,0.00,meteohub,2013-09-07 22:51:00,
2013-09-07 18:57:00,85.3,73.9,29.94,NNW,345,3.0,8.0,69,0.00,,,0.00,meteohub,2013-09-07 22:57:00,
2013-09-07 19:02:00,85.3,73.9,29.94,NNW,346,4.0,7.0,69,0.00,,,0.00,meteohub,2013-09-07 23:02:00,
2013-09-07 19:07:00,85.1,74.1,29.95,WSW,255,2.0,8.0,70,0.00,,,0.00,meteohub,2013-09-07 23:07:00,
2013-09-07 19:12:00,84.9,74.5,29.95,ESE,104,1.0,8.0,71,0.00,,,0.00,meteohub,2013-09-07 23:12:00,
2013-09-07 19:17:00,84.9,74.8,29.95,NW,321,0.0,8.0,72,0.00,,,0.00,meteohub,2013-09-07 23:17:00,
2013-09-07 19:22:00,84.7,74.7,29.95,WNW,296,6.0,6.0,72,0.00,,,0.00,meteohub,2013-09-07 23:22:00,
2013-09-07 19:27:00,84.6,75.0,29.95,East,83,1.0,6.0,73,0.00,,,0.00,meteohub,2013-09-07 23:27:00,
2013-09-07 19:32:00,84.0,74.5,29.96,NE,53,2.0,6.0,73,0.00,,,0.00,meteohub,2013-09-07 23:32:00,
2013-09-07 19:37:00,83.8,74.7,29.95,NW,307,0.0,6.0,74,0.00,,,0.00,meteohub,2013-09-07 23:37:00,
2013-09-07 19:42:00,83.8,74.7,29.95,WNW,302,0.0,7.0,74,0.00,,,0.00,meteohub,2013-09-07 23:42:00,
2013-09-07 19:47:00,83.7,74.8,29.95,NNE,31,2.0,7.0,75,0.00,,,0.00,meteohub,2013-09-07 23:47:00,
2013-09-07 19:52:00,83.7,74.5,29.95,NW,322,5.0,7.0,74,0.00,,,0.00,meteohub,2013-09-07 23:52:00,
2013-09-07 19:57:00,83.3,72.1,29.96,NE,52,2.0,7.0,69,0.00,,,0.00,meteohub,2013-09-07 23:57:00,
2013-09-07 20:02:00,82.6,69.6,29.97,ENE,68,10.0,10.0,65,0.00,,,0.00,meteohub,2013-09-08 00:02:00,
2013-09-07 20:07:00,81.3,69.3,29.97,NE,43,3.0,10.0,67,0.00,,,0.00,meteohub,2013-09-08 00:07:00,
2013-09-07 20:12:00,80.6,69.4,29.97,NE,55,4.0,11.0,69,0.00,,,0.00,meteohub,2013-09-08 00:12:00,
2013-09-07 20:17:00,80.2,69.6,29.97,NW,326,1.0,11.0,70,0.00,,,0.00,meteohub,2013-09-08 00:17:00,
2013-09-07 20:22:00,80.1,69.8,29.96,North,354,0.0,8.0,71,0.00,,,0.00,meteohub,2013-09-08 00:22:00,
2013-09-07 20:27:00,79.9,70.0,29.96,WNW,298,1.0,6.0,72,0.00,,,0.00,meteohub,2013-09-08 00:27:00,
2013-09-07 20:32:00,79.7,70.3,29.97,NNW,333,1.0,3.0,73,0.00,,,0.00,meteohub,2013-09-08 00:32:00,
2013-09-07 20:37:00,79.3,70.7,29.97,NNW,333,2.0,5.0,75,0.00,,,0.00,meteohub,2013-09-08 00:37:00,
2013-09-07 20:42:00,79.0,70.7,29.97,NNE,31,0.0,5.0,76,0.00,,,0.00,meteohub,2013-09-08 00:42:00,
2013-09-07 20:47:00,78.8,70.5,29.98,ENE,58,1.0,5.0,76,0.00,,,0.00,meteohub,2013-09-08 00:47:00,
2013-09-07 20:52:00,78.6,70.3,29.98,North,356,1.0,5.0,76,0.00,,,0.00,meteohub,2013-09-08 00:52:00,
2013-09-07 20:57:00,78.6,70.3,29.98,NNE,33,1.0,3.0,76,0.00,,,0.00,meteohub,2013-09-08 00:57:00,
2013-09-07 21:02:00,78.6,70.3,29.98,NNE,33,0.0,3.0,76,0.00,,,0.00,meteohub,2013-09-08 01:02:00,
2013-09-07 21:07:00,78.4,70.7,29.98,NNE,33,0.0,3.0,77,0.00,,,0.00,meteohub,2013-09-08 01:07:00,
2013-09-07 21:12:00,78.4,71.4,29.99,NNE,33,0.0,3.0,79,0.00,,,0.00,meteohub,2013-09-08 01:12:00,
2013-09-07 21:17:00,78.3,70.9,29.99,ESE,104,0.0,1.0,78,0.00,,,0.00,meteohub,2013-09-08 01:17:00,
2013-09-07 21:22:00,78.4,70.7,29.99,ENE,73,1.0,1.0,77,0.00,,,0.00,meteohub,2013-09-08 01:22:00,
2013-09-07 21:27:00,78.6,70.9,29.99,ENE,75,0.0,2.0,77,0.00,,,0.00,meteohub,2013-09-08 01:27:00,
2013-09-07 21:32:00,78.6,70.9,29.99,ESE,105,1.0,2.0,77,0.00,,,0.00,meteohub,2013-09-08 01:32:00,
2013-09-07 21:37:00,78.6,70.9,29.99,NNE,27,0.0,3.0,77,0.00,,,0.00,meteohub,2013-09-08 01:37:00,
2013-09-07 21:42:00,78.6,70.9,29.99,NNE,32,3.0,3.0,77,0.00,,,0.00,meteohub,2013-09-08 01:42:00,
2013-09-07 21:47:00,78.6,71.2,29.99,South,170,0.0,3.0,78,0.00,,,0.00,meteohub,2013-09-08 01:47:00,
2013-09-07 21:52:00,78.6,71.6,29.99,ESE,115,0.0,3.0,79,0.00,,,0.00,meteohub,2013-09-08 01:52:00,
2013-09-07 21:57:00,78.4,71.8,29.99,ESE,102,0.0,3.0,80,0.00,,,0.00,meteohub,2013-09-08 01:57:00,
2013-09-07 22:02:00,78.3,72.0,29.99,ESE,102,0.0,3.0,81,0.00,,,0.00,meteohub,2013-09-08 02:02:00,
2013-09-07 22:07:00,78.1,71.8,29.99,North,4,0.0,1.0,81,0.00,,,0.00,meteohub,2013-09-08 02:07:00,
2013-09-07 22:12:00,78.1,71.8,29.99,East,87,1.0,3.0,81,0.00,,,0.00,meteohub,2013-09-08 02:12:00,
2013-09-07 22:17:00,77.9,71.6,29.99,East,82,0.0,3.0,81,0.00,,,0.00,meteohub,2013-09-08 02:17:00,
2013-09-07 22:22:00,77.7,71.8,29.99,East,82,0.0,3.0,82,0.00,,,0.00,meteohub,2013-09-08 02:22:00,
2013-09-07 22:27:00,77.5,72.0,29.98,East,82,0.0,2.0,83,0.00,,,0.00,meteohub,2013-09-08 02:27:00,
2013-09-07 22:32:00,77.4,72.1,29.98,East,82,0.0,1.0,84,0.00,,,0.00,meteohub,2013-09-08 02:32:00,
2013-09-07 22:37:00,77.2,72.3,29.98,East,82,0.0,1.0,85,0.00,,,0.00,meteohub,2013-09-08 02:37:00,
2013-09-07 22:43:00,76.8,72.0,29.97,East,82,0.0,1.0,85,0.00,,,0.00,meteohub,2013-09-08 02:43:00,
2013-09-07 22:48:00,76.8,72.3,29.97,East,82,0.0,1.0,86,0.00,,,0.00,meteohub,2013-09-08 02:48:00,
2013-09-07 22:53:00,76.6,72.1,29.97,East,82,0.0,1.0,86,0.00,,,0.00,meteohub,2013-09-08 02:53:00,
2013-09-07 22:58:00,76.5,72.0,29.97,East,82,0.0,1.0,86,0.00,,,0.00,meteohub,2013-09-08 02:58:00,
2013-09-07 23:03:00,76.6,72.1,29.97,East,82,0.0,1.0,86,0.00,,,0.00,meteohub,2013-09-08 03:03:00,
2013-09-07 23:08:00,76.5,72.3,29.97,East,82,0.0,1.0,87,0.00,,,0.00,meteohub,2013-09-08 03:08:00,
2013-09-07 23:13:00,76.5,72.3,29.97,East,82,0.0,1.0,87,0.00,,,0.00,meteohub,2013-09-08 03:13:00,
2013-09-07 23:19:00,76.3,72.1,29.97,East,82,0.0,0.0,87,0.00,,,0.00,meteohub,2013-09-08 03:19:00,
2013-09-07 23:24:00,76.1,72.3,29.97,East,82,0.0,0.0,88,0.00,,,0.00,meteohub,2013-09-08 03:24:00,
2013-09-07 23:29:00,75.9,72.5,29.97,East,82,0.0,0.0,89,0.00,,,0.00,meteohub,2013-09-08 03:29:00,
2013-09-07 23:34:00,75.9,72.1,29.97,East,82,0.0,0.0,88,0.00,,,0.00,meteohub,2013-09-08 03:34:00,
2013-09-07 23:39:00,75.9,72.5,29.97,East,82,0.0,1.0,89,0.00,,,0.00,meteohub,2013-09-08 03:39:00,
2013-09-07 23:44:00,75.9,72.5,29.96,ENE,77,0.0,1.0,89,0.00,,,0.00,meteohub,2013-09-08 03:44:00,
2013-09-07 23:49:00,76.3,72.9,29.96,ENE,77,0.0,1.0,89,0.00,,,0.00,meteohub,2013-09-08 03:49:00,
2013-09-07 23:54:00,76.5,73.0,29.96,ENE,77,0.0,1.0,89,0.00,,,0.00,meteohub,2013-09-08 03:54:00,